Voltar ao catálogo

TELSTAR 1

AtivoComunicaçõesUNKNOWN
NORAD 340·PAYLOAD·🇺🇸 United States

Lançado Jul 10, 1962 de Cape Canaveral Space Force Station

Loading…

Próximas Passagens (próximas 24 horas)

TLE

AtualizadoSource: Space-Track

Época: Sep 12, 2026, 17:49 UTC

1 00340U 62029A   26255.74244267 -.00000104  00000-0 -59445-3 0  9999
2 00340  44.8039 157.1099 2427884 316.2741  54.3429  9.12894679140454

Acompanhe TELSTAR 1 em tempo real com AllMySat

Download on the App Store